Weather History for O'Neill, NE

Change the Weather History Date:

Tuesday, November 27, 2012

  Actual Average Record
Temperature  
Mean Temperature 26 °F -  
Max Temperature 39 °F 35 °F 77 °F (1998)
Min Temperature 14 °F 15 °F -10 °F (1985)
Degree Days  
Heating Degree Days 38    
Moisture  
Dew Point 23 °F    
Average Humidity 84    
Maximum Humidity 91    
Minimum Humidity 68    
Precipitation  
Precipitation 0.00 in - - ()
Sea Level Pressure  
Sea Level Pressure 30.20 in    
Wind  
Wind Speed 8 mph (WSW)    
Max Wind Speed 15 mph    
Max Gust Speed 17 mph    
Visibility 10 miles    
Events      
Averages and records for this station are not official NWS values.
T = Trace of Precipitation, MM = Missing Value Source: NWS Daily Summary

Daily Weather History Graph

Daily Weather History Graph

Search for Another Location

Airport:

Trip Planner

Search our weather history database for the weather conditions in past years. The results will help you decide how hot, cold, wet, or windy it might be!

Date:

Astronomy

Nov. 27, 2012 Rise Set
Actual Time 7:40 AM CST 5:04 PM CST
Civil Twilight 7:09 AM CST 5:35 PM CST
Nautical Twilight 6:34 AM CST 6:10 PM CST
Astronomical Twilight 6:01 AM CST 6:43 PM CST
Moon 4:36 PM CST (11/27) 6:46 AM CST (11/27)
Length of Visible Light 10h 25m
Length of Day
9h 23m
Waxing Gibbous, 99% of the Moon is Illuminated
Nov 27
Waxing Gibbous
Nov 28
Full
Dec 6
Last Quarter
Dec 13
New
Dec 19
First Quarter

Hourly Weather History & Observations

Time (CST) Temp. Windchill Dew Point Humidity Pressure Visibility Wind Dir Wind Speed Gust Speed Precip Events Conditions
12:15 AM 15.6 °F 5.9 °F 13.5 °F 91% 30.33 in 10.0 mi SSW 6.9 mph - N/A   Clear
12:35 AM 15.6 °F 3.2 °F 13.3 °F 90% 30.32 in 10.0 mi SSW 10.4 mph - N/A   Clear
12:55 AM 15.6 °F 5.9 °F 13.1 °F 90% 30.30 in 10.0 mi SSW 6.9 mph - N/A   Clear
1:15 AM 15.6 °F 7.0 °F 13.1 °F 90% 30.30 in 10.0 mi South 5.8 mph - N/A   Clear
1:35 AM 14.9 °F 5.0 °F 12.7 °F 91% 30.30 in 10.0 mi South 6.9 mph - N/A   Clear
1:55 AM 16.2 °F 6.5 °F 13.8 °F 90% 30.29 in 10.0 mi SSW 6.9 mph - N/A   Clear
2:15 AM 18.0 °F 8.7 °F 15.8 °F 91% 30.28 in 10.0 mi SSW 6.9 mph - N/A   Clear
2:35 AM 20.3 °F 9.8 °F 18.1 °F 91% 30.27 in 10.0 mi SSW 9.2 mph - N/A   Clear
2:55 AM 19.8 °F 10.8 °F 17.2 °F 90% 30.26 in 10.0 mi South 6.9 mph - N/A   Clear
3:15 AM 19.4 °F 8.6 °F 17.2 °F 91% 30.26 in 10.0 mi SSW 9.2 mph - N/A   Clear
3:35 AM 19.4 °F 9.5 °F 15.8 °F 86% 30.25 in 10.0 mi SSW 8.1 mph - N/A   Clear
3:55 AM 19.0 °F 8.2 °F 16.7 °F 91% 30.24 in 10.0 mi South 9.2 mph - N/A   Clear
4:15 AM 20.1 °F 8.8 °F 17.8 °F 91% 30.22 in 10.0 mi SSW 10.4 mph - N/A   Clear
4:35 AM 21.2 °F 9.5 °F 18.5 °F 89% 30.21 in 10.0 mi SSW 11.5 mph - N/A   Clear
4:55 AM 21.2 °F 10.1 °F 18.7 °F 90% 30.20 in 10.0 mi South 10.4 mph - N/A   Clear
5:15 AM 20.3 °F 10.6 °F 17.8 °F 90% 30.19 in 10.0 mi South 8.1 mph - N/A   Clear
5:35 AM 20.7 °F 10.2 °F 18.1 °F 90% 30.19 in 10.0 mi South 9.2 mph - N/A   Clear
5:55 AM 20.5 °F 9.2 °F 18.0 °F 90% 30.19 in 10.0 mi South 10.4 mph - N/A   Clear
6:15 AM 21.2 °F 10.1 °F 17.6 °F 86% 30.17 in 10.0 mi South 10.4 mph - N/A   Clear
6:35 AM 21.2 °F 10.1 °F 18.5 °F 89% 30.16 in 10.0 mi South 10.4 mph - N/A   Clear
6:55 AM 21.4 °F 9.7 °F 18.7 °F 89% 30.15 in 10.0 mi South 11.5 mph - N/A   Clear
7:15 AM 21.2 °F 10.9 °F 18.5 °F 89% 30.14 in 10.0 mi South 9.2 mph - N/A   Clear
7:35 AM 21.2 °F 10.9 °F 18.5 °F 89% 30.13 in 10.0 mi South 9.2 mph - N/A   Clear
7:55 AM 22.6 °F 12.6 °F 19.6 °F 88% 30.14 in 10.0 mi SSW 9.2 mph - N/A   Clear
8:15 AM 23.5 °F 13.7 °F 20.1 °F 87% 30.14 in 10.0 mi SSW 9.2 mph - N/A   Clear
8:35 AM 24.4 °F 14.2 °F 21.0 °F 87% 30.14 in 10.0 mi SSW 10.4 mph - N/A   Clear
8:55 AM 26.1 °F 15.0 °F 22.3 °F 86% 30.14 in 10.0 mi SW 12.7 mph 17.3 mph N/A   Clear
9:15 AM 26.6 °F 14.7 °F 22.6 °F 85% 30.14 in 10.0 mi SW 15.0 mph - N/A   Clear
9:35 AM 27.9 °F 18.4 °F 23.5 °F 84% 30.14 in 10.0 mi SW 10.4 mph - N/A   Clear
9:55 AM 28.9 °F 18.2 °F 23.5 °F 80% 30.14 in 10.0 mi WSW 13.8 mph - N/A   Clear
10:15 AM 29.5 °F 18.8 °F 24.1 °F 80% 30.14 in 10.0 mi WSW 13.8 mph - N/A   Clear
10:35 AM 30.7 °F 21.4 °F 24.8 °F 79% 30.14 in 10.0 mi WSW 11.5 mph 17.3 mph N/A   Clear
10:55 AM 32.0 °F 23.6 °F 25.9 °F 78% 30.14 in 10.0 mi West 10.4 mph - N/A   Clear
11:15 AM 32.5 °F 22.7 °F 25.9 °F 76% 30.14 in 10.0 mi West 13.8 mph - N/A   Clear
11:35 AM 34.2 °F 27.5 °F 27.0 °F 75% 30.14 in 10.0 mi West 8.1 mph - N/A   Clear
11:55 AM 34.9 °F 27.1 °F 27.3 °F 74% 30.14 in 10.0 mi West 10.4 mph - N/A   Clear
12:15 PM 35.1 °F 27.4 °F 27.9 °F 75% 30.13 in 10.0 mi West 10.4 mph - N/A   Clear
12:35 PM 35.6 °F 28.6 °F 28.4 °F 75% 30.12 in 10.0 mi West 9.2 mph - N/A   Clear
12:55 PM 36.7 °F 29.4 °F 29.1 °F 74% 30.12 in 10.0 mi West 10.4 mph - N/A   Clear
1:15 PM 37.6 °F 31.0 °F 29.7 °F 73% 30.13 in 10.0 mi West 9.2 mph - N/A   Clear
1:35 PM 38.3 °F 31.9 °F 30.4 °F 73% 30.13 in 10.0 mi West 9.2 mph - N/A   Clear
1:55 PM 37.8 °F 31.8 °F 29.3 °F 72% 30.12 in 10.0 mi West 8.1 mph - N/A   Clear
2:15 PM 39.0 °F 32.8 °F 29.3 °F 68% 30.12 in 10.0 mi WNW 9.2 mph - N/A   Clear
2:35 PM 37.8 °F 31.3 °F 29.7 °F 73% 30.12 in 10.0 mi West 9.2 mph - N/A   Clear
2:55 PM 37.9 °F 32.1 °F 30.0 °F 73% 30.13 in 10.0 mi West 8.1 mph - N/A   Clear
3:15 PM 37.8 °F 33.3 °F 30.0 °F 74% 30.13 in 10.0 mi West 5.8 mph - N/A   Clear
3:35 PM 37.6 °F 34.0 °F 30.7 °F 76% 30.14 in 10.0 mi West 4.6 mph - N/A   Clear
3:55 PM 39.4 °F 36.1 °F 31.1 °F 72% 30.14 in 10.0 mi West 4.6 mph - N/A   Clear
4:15 PM 39.2 °F 37.0 °F 30.6 °F 71% 30.16 in 10.0 mi West 3.5 mph - N/A   Clear
4:35 PM 37.2 °F 33.6 °F 30.0 °F 75% 30.16 in 10.0 mi West 4.6 mph - N/A   Clear
4:55 PM 36.0 °F 32.1 °F 30.0 °F 79% 30.17 in 10.0 mi West 4.6 mph - N/A   Clear
5:15 PM 34.7 °F 29.6 °F 29.7 °F 82% 30.17 in 10.0 mi West 5.8 mph - N/A   Clear
5:35 PM 33.8 °F 28.6 °F 30.2 °F 87% 30.18 in 10.0 mi West 5.8 mph - N/A   Clear
5:55 PM 32.0 °F 25.6 °F 28.0 °F 85% 30.19 in 10.0 mi West 6.9 mph - N/A   Clear
6:15 PM 32.0 °F 25.6 °F 28.4 °F 87% 30.20 in 10.0 mi West 6.9 mph - N/A   Clear
6:35 PM 31.6 °F 26.0 °F 28.0 °F 87% 30.21 in 10.0 mi West 5.8 mph - N/A   Clear
6:55 PM 30.6 °F 23.8 °F 27.3 °F 88% 30.21 in 10.0 mi West 6.9 mph - N/A   Clear
7:15 PM 30.6 °F 23.8 °F 27.3 °F 88% 30.21 in 10.0 mi West 6.9 mph - N/A   Clear
7:35 PM 30.0 °F 24.1 °F 26.8 °F 88% 30.22 in 10.0 mi West 5.8 mph - N/A   Clear
7:55 PM 30.0 °F 25.2 °F 26.6 °F 87% 30.24 in 10.0 mi NW 4.6 mph - N/A   Clear
8:15 PM 30.2 °F 26.7 °F 26.6 °F 86% 30.24 in 10.0 mi NW 3.5 mph - N/A   Clear
8:35 PM 29.7 °F 26.1 °F 26.1 °F 86% 30.24 in 10.0 mi NNW 3.5 mph - N/A   Clear
8:55 PM 29.1 °F 23.0 °F 25.7 °F 87% 30.24 in 10.0 mi NW 5.8 mph - N/A   Clear
9:15 PM 29.8 °F 24.9 °F 25.3 °F 83% 30.25 in 10.0 mi NW 4.6 mph - N/A   Clear
9:35 PM 29.5 °F 24.5 °F 24.8 °F 83% 30.25 in 10.0 mi NW 4.6 mph - N/A   Clear
9:55 PM 28.0 °F 24.2 °F 23.9 °F 84% 30.26 in 10.0 mi WNW 3.5 mph - N/A   Clear
10:15 PM 27.7 °F 23.8 °F 23.5 °F 84% 30.26 in 10.0 mi NW 3.5 mph - N/A   Clear
10:35 PM 28.0 °F 22.8 °F 23.0 °F 81% 30.26 in 10.0 mi NNW 4.6 mph - N/A   Clear
10:55 PM 26.1 °F 20.5 °F 21.7 °F 84% 30.27 in 10.0 mi NNW 4.6 mph - N/A   Clear
11:15 PM 26.2 °F 22.1 °F 21.6 °F 82% 30.27 in 10.0 mi NW 3.5 mph - N/A   Clear
11:35 PM 24.8 °F - 20.5 °F 84% 30.27 in 10.0 mi Calm Calm - N/A   Clear
11:55 PM 23.4 °F 18.9 °F 20.1 °F 87% 30.27 in 10.0 mi WSW 3.5 mph - N/A   Clear